Location: Lalanga
(4.5882°N, 32.9072°E)
Time: 03:40:11
(UTC+00:00)

CENTAUR R/B - Pass Details

Date: 24 January 2020
Orbit: 766 x 1422 km, 63.5° (Epoch: 07 February)

Event Time Altitude Azimuth Distance (km) Brightness Sun altitude
Rises 16:49:41 0° 196° (SSW) 3,227 5.8 -13.1°
Reaches altitude 10° 16:52:03 10° 192° (SSW) 2,301 4.9 -13.7°
Maximum altitude 16:57:10 61° 112° (ESE) 893 2.1 -14.9°
Enters shadow 17:01:17 18° 36° (NE) 1,951 3.6 -15.9°
